sat.trackr.live / text

‹ back to catalog

ONEWEB-0377

NORAD 49303 · 2021-090AA

PAYLOAD ACTIVE UNKNOWN

§ Identity

Operator
Country
UK
Launch date
2021-10-14
Launch site
VOSTO
Launch vehicle
Mass (kg)
RCS (m²)

Purposes: comms

External: N2YO · Heavens-Above · Gunter

§ Orbital elements

Epoch: 2026-05-24T21:43:23.256192Z

Period
109.03 min
Inclination
87.9175°
Eccentricity
0.0002075
Mean motion
13.20770395 rev/d
Perigee alt
1,180.2 km
Apogee alt
1,183.3 km
Semi-major
7,559.9 km
B*
-3.1608e-4
RAAN
279.0775°
Arg perigee
103.5581°
Mean anomaly
256.5784°
Rev number
22,744

§ Raw data

ONEWEB-03771 49303U 21090AA  26144.90513028 -.00000116  00000+0 -31608-3 0  99962 49303  87.9175 279.0775 0002075 103.5581 256.5784 13.20770395227445

JSON: /api/v1/satellites/49303 · /tle

For live sub-satellite position, see the globe view (requires WebGL).

§ Visibility from observer

Set your observer location to see the next 7 days of passes ≥ 10°. The values pass through the URL so the page stays shareable.

No JS? Fill the form by hand. The geolocation button needs JavaScript.